| time (UTC) | temp C | wind direction | speed KPH | gust KPH | rain 1hr cm | rain 24hr cm | rain mn cm | humidity % | barometer mb |
| 20260906023019 | 16 | 36 | 3.2 | 3.2 | 0.00 | 0.00 | 0.00 | 74 | 1012.2 |
| 20260906022519 | 16 | 48 | 0.0 | 0.0 | 0.00 | 0.00 | 0.00 | 73 | 1012.5 |
| 20260906022019 | 16 | 360 | 0.0 | 0.0 | 0.00 | 0.00 | 0.00 | 73 | 1012.2 |
| 20260906021519 | 16 | 318 | 3.2 | 3.2 | 0.00 | 0.00 | 0.00 | 72 | 1012.2 |
| 20260906021019 | 16 | 6 | 1.6 | 1.6 | 0.00 | 0.00 | 0.00 | 72 | 1012.2 |
| 20260906020519 | 17 | 6 | 0.0 | 0.0 | 0.00 | 0.00 | 0.00 | 71 | 1012.2 |
| 20260906020019 | 17 | 6 | 3.2 | 3.2 | 0.00 | 0.00 | 0.00 | 71 | 1012.2 |
| 20260906015520 | 17 | 6 | 0.0 | 0.0 | 0.00 | 0.00 | 0.00 | 70 | 1012.5 |
| 20260906015019 | 17 | 12 | 1.6 | 1.6 | 0.00 | 0.00 | 0.00 | 70 | 1012.2 |
| 20260906014520 | 17 | 12 | 3.2 | 3.2 | 0.00 | 0.00 | 0.00 | 70 | 1012.2 |
| 20260906014022 | 17 | 18 | 1.6 | 1.6 | 0.00 | 0.00 | 0.00 | 69 | 1012.2 |
| 20260906013519 | 17 | 24 | 1.6 | 1.6 | 0.00 | 0.00 | 0.00 | 70 | 1012.2 |
| 20260906013019 | 17 | 24 | 1.6 | 1.6 | 0.00 | 0.00 | 0.00 | 70 | 1012.2 |
| 20260906012519 | 17 | 306 | 1.6 | 1.6 | 0.00 | 0.00 | 0.00 | 71 | 1012.2 |
| 20260906012020 | 16 | 288 | 3.2 | 3.2 | 0.00 | 0.00 | 0.00 | 71 | 1012.2 |
| 20260906011519 | 16 | 300 | 0.0 | 0.0 | 0.00 | 0.00 | 0.00 | 72 | 1012.2 |
| 20260906011018 | 16 | 300 | 0.0 | 0.0 | 0.00 | 0.00 | 0.00 | 73 | 1012.2 |
| 20260906010519 | 16 | 294 | 1.6 | 1.6 | 0.00 | 0.00 | 0.00 | 72 | 1011.9 |
| 20260906010019 | 16 | 294 | 0.0 | 0.0 | 0.00 | 0.00 | 0.00 | 72 | 1012.2 |
| 20260906005519 | 17 | 294 | 0.0 | 0.0 | 0.00 | 0.00 | 0.00 | 71 | 1011.9 |
| 20260906005019 | 17 | 299 | 0.0 | 0.0 | 0.00 | 0.00 | 0.00 | 71 | 1012.2 |
| 20260906004519 | 16 | 282 | 0.0 | 0.0 | 0.00 | 0.00 | 0.00 | 71 | 1011.9 |
| 20260906004019 | 16 | 282 | 0.0 | 0.0 | 0.00 | 0.00 | 0.00 | 71 | 1012.2 |
| 20260906003519 | 16 | 282 | 0.0 | 0.0 | 0.00 | 0.00 | 0.00 | 72 | 1011.9 |
| 20260906003019 | 16 | 282 | 0.0 | 0.0 | 0.00 | 0.00 | 0.00 | 72 | 1012.2 |
| 20260906002519 | 16 | 324 | 0.0 | 0.0 | 0.00 | 0.00 | 0.00 | 72 | 1012.2 |
| 20260906002019 | 16 | 330 | 0.0 | 0.0 | 0.00 | 0.00 | 0.00 | 74 | 1012.2 |
| 20260906001521 | 16 | 330 | 0.0 | 0.0 | 0.00 | 0.00 | 0.00 | 74 | 1012.2 |
| 20260906001019 | 16 | 336 | 0.0 | 0.0 | 0.00 | 0.00 | 0.00 | 74 | 1012.2 |
| 20260906000519 | 16 | 336 | 0.0 | 0.0 | 0.00 | 0.00 | 0.00 | 74 | 1011.9 |
| 20260906000019 | 16 | 342 | 0.0 | 0.0 | 0.00 | 0.00 | 0.00 | 74 | 1012.2 |
| 20260905235519 | 16 | 342 | 0.0 | 0.0 | 0.00 | 0.00 | 0.00 | 75 | 1011.9 |
| 20260905235019 | 16 | 342 | 0.0 | 0.0 | 0.00 | 0.00 | 0.00 | 75 | 1011.9 |
| 20260905234519 | 16 | 342 | 0.0 | 0.0 | 0.00 | 0.00 | 0.00 | 74 | 1011.9 |
| 20260905234020 | 16 | 342 | 0.0 | 0.0 | 0.00 | 0.00 | 0.00 | 74 | 1011.9 |
| 20260905233519 | 16 | 342 | 0.0 | 0.0 | 0.00 | 0.00 | 0.00 | 74 | 1011.5 |
| 20260905233019 | 16 | 342 | 0.0 | 0.0 | 0.00 | 0.00 | 0.00 | 74 | 1011.5 |
| 20260905232519 | 16 | 342 | 0.0 | 0.0 | 0.00 | 0.00 | 0.00 | 74 | 1011.5 |
| 20260905232021 | 16 | 342 | 0.0 | 0.0 | 0.00 | 0.00 | 0.00 | 74 | 1011.5 |
| 20260905231519 | 16 | 342 | 0.0 | 0.0 | 0.00 | 0.00 | 0.00 | 73 | 1011.9 |
| 20260905231019 | 16 | 342 | 1.6 | 1.6 | 0.00 | 0.00 | 0.00 | 73 | 1011.9 |
| 20260905230519 | 17 | 342 | 0.0 | 0.0 | 0.00 | 0.00 | 0.00 | 73 | 1011.9 |
| 20260905230019 | 16 | 98 | 0.0 | 0.0 | 0.00 | 0.00 | 0.00 | 73 | 1011.5 |
| 20260905225519 | 17 | 102 | 0.0 | 0.0 | 0.00 | 0.00 | 0.00 | 73 | 1011.5 |
| 20260905225019 | 17 | 102 | 0.0 | 0.0 | 0.00 | 0.00 | 0.00 | 73 | 1011.5 |
| 20260905224519 | 17 | 102 | 0.0 | 0.0 | 0.00 | 0.00 | 0.00 | 73 | 1011.5 |
| 20260905224019 | 17 | 102 | 0.0 | 0.0 | 0.00 | 0.00 | 0.00 | 72 | 1011.2 |
| 20260905223519 | 17 | 102 | 0.0 | 0.0 | 0.00 | 0.00 | 0.00 | 71 | 1011.2 |
| 20260905223019 | 17 | 102 | 0.0 | 0.0 | 0.00 | 0.00 | 0.00 | 71 | 1011.5 |
| 20260905222520 | 17 | 102 | 0.0 | 0.0 | 0.00 | 0.00 | 0.00 | 71 | 1011.2 |
| 20260905222019 | 18 | 102 | 0.0 | 0.0 | 0.00 | 0.00 | 0.00 | 70 | 1011.2 |
| 20260905221519 | 18 | 102 | 0.0 | 0.0 | 0.00 | 0.00 | 0.00 | 69 | 1011.2 |
| 20260905221019 | 18 | 103 | 0.0 | 0.0 | 0.00 | 0.00 | 0.00 | 69 | 1011.5 |
| 20260905220519 | 18 | 103 | 0.0 | 0.0 | 0.00 | 0.00 | 0.00 | 68 | 1011.5 |
| 20260905220021 | 18 | 103 | 0.0 | 0.0 | 0.00 | 0.00 | 0.00 | 67 | 1011.5 |
| 20260905215519 | 18 | 103 | 0.0 | 0.0 | 0.00 | 0.00 | 0.00 | 66 | 1011.2 |
| 20260905215019 | 19 | 103 | 0.0 | 0.0 | 0.00 | 0.00 | 0.00 | 66 | 1011.2 |
| 20260905214519 | 19 | 103 | 0.0 | 0.0 | 0.00 | 0.00 | 0.00 | 65 | 1011.2 |
| 20260905214021 | 19 | 103 | 0.0 | 0.0 | 0.00 | 0.00 | 0.00 | 64 | 1011.2 |
| 20260905213519 | 19 | 103 | 0.0 | 0.0 | 0.00 | 0.00 | 0.00 | 64 | 1011.2 |
| 20260905213019 | 19 | 103 | 0.0 | 0.0 | 0.00 | 0.00 | 0.00 | 63 | 1010.8 |
| 20260905212520 | 19 | 103 | 0.0 | 0.0 | 0.00 | 0.00 | 0.00 | 63 | 1011.2 |
| 20260905212020 | 19 | 103 | 0.0 | 0.0 | 0.00 | 0.00 | 0.00 | 63 | 1010.8 |
| 20260905211519 | 19 | 103 | 0.0 | 0.0 | 0.00 | 0.00 | 0.00 | 63 | 1010.8 |
| 20260905211019 | 19 | 103 | 0.0 | 0.0 | 0.00 | 0.00 | 0.00 | 63 | 1010.5 |
| 20260905210519 | 19 | 103 | 0.0 | 0.0 | 0.00 | 0.00 | 0.00 | 63 | 1010.5 |
| 20260905210019 | 19 | 103 | 0.0 | 0.0 | 0.00 | 0.00 | 0.00 | 62 | 1010.5 |
| 20260905205519 | 19 | 103 | 0.0 | 0.0 | 0.00 | 0.00 | 0.00 | 62 | 1010.5 |
| 20260905205019 | 20 | 103 | 0.0 | 0.0 | 0.00 | 0.00 | 0.00 | 61 | 1010.5 |
| 20260905204519 | 20 | 108 | 0.0 | 0.0 | 0.00 | 0.00 | 0.00 | 61 | 1010.5 |
| 20260905204019 | 20 | 108 | 0.0 | 0.0 | 0.00 | 0.00 | 0.00 | 60 | 1010.5 |
| 20260905203519 | 20 | 108 | 0.0 | 0.0 | 0.00 | 0.00 | 0.00 | 58 | 1010.5 |
| 20260905203019 | 20 | 104 | 0.0 | 0.0 | 0.00 | 0.00 | 0.00 | 57 | 1010.5 |
| 20260905202519 | 21 | 104 | 0.0 | 0.0 | 0.00 | 0.00 | 0.00 | 56 | 1010.5 |
| 20260905202019 | 21 | 108 | 0.0 | 0.0 | 0.00 | 0.00 | 0.00 | 55 | 1010.2 |
| 20260905201520 | 21 | 42 | 3.2 | 3.2 | 0.00 | 0.00 | 0.00 | 54 | 1010.2 |
| 20260905201044 | 21 | 64 | 1.6 | 1.6 | 0.00 | 0.00 | 0.00 | 53 | 1010.5 |
| 20260905200519 | 21 | 102 | 0.0 | 0.0 | 0.00 | 0.00 | 0.00 | 52 | 1010.2 |
| 20260905200019 | 21 | 72 | 0.0 | 0.0 | 0.00 | 0.00 | 0.00 | 51 | 1009.8 |
| 20260905195519 | 22 | 72 | 3.2 | 3.2 | 0.00 | 0.00 | 0.00 | 49 | 1009.8 |
| 20260905195019 | 22 | 112 | 0.0 | 0.0 | 0.00 | 0.00 | 0.00 | 46 | 1009.5 |
| 20260905194520 | 22 | 52 | 0.0 | 0.0 | 0.00 | 0.00 | 0.00 | 46 | 1009.5 |
| 20260905194021 | 22 | 52 | 0.0 | 0.0 | 0.00 | 0.00 | 0.00 | 46 | 1009.5 |
| 20260905193519 | 22 | 52 | 0.0 | 0.0 | 0.00 | 0.00 | 0.00 | 46 | 1009.5 |
| 20260905193019 | 22 | 48 | 0.0 | 0.0 | 0.00 | 0.00 | 0.00 | 46 | 1009.5 |
| 20260905192521 | 22 | 52 | 0.0 | 0.0 | 0.00 | 0.00 | 0.00 | 46 | 1009.5 |
| 20260905192019 | 22 | 52 | 0.0 | 0.0 | 0.00 | 0.00 | 0.00 | 46 | 1009.1 |
| 20260905191520 | 22 | 48 | 0.0 | 0.0 | 0.00 | 0.00 | 0.00 | 45 | 1009.1 |
| 20260905191019 | 22 | 48 | 0.0 | 0.0 | 0.00 | 0.00 | 0.00 | 44 | 1009.5 |
| 20260905190519 | 22 | 48 | 0.0 | 0.0 | 0.00 | 0.00 | 0.00 | 43 | 1009.5 |
| 20260905190019 | 22 | 42 | 0.0 | 0.0 | 0.00 | 0.00 | 0.00 | 43 | 1009.5 |
| 20260905185519 | 22 | 42 | 0.0 | 0.0 | 0.00 | 0.00 | 0.00 | 42 | 1009.5 |
| 20260905185019 | 22 | 42 | 0.0 | 0.0 | 0.00 | 0.00 | 0.00 | 42 | 1009.5 |
| 20260905184519 | 22 | 42 | 0.0 | 0.0 | 0.00 | 0.00 | 0.00 | 41 | 1009.5 |
| 20260905184020 | 23 | 42 | 0.0 | 0.0 | 0.00 | 0.00 | 0.00 | 40 | 1009.5 |
| 20260905183519 | 23 | 48 | 1.6 | 1.6 | 0.00 | 0.00 | 0.00 | 40 | 1009.1 |
| 20260905183019 | 23 | 70 | 0.0 | 0.0 | 0.00 | 0.00 | 0.00 | 39 | 1009.1 |
| 20260905182519 | 23 | 71 | 0.0 | 0.0 | 0.00 | 0.00 | 0.00 | 39 | 1009.1 |
| 20260905182019 | 23 | 52 | 3.2 | 3.2 | 0.00 | 0.00 | 0.00 | 38 | 1009.1 |
| 20260905181519 | 23 | 74 | 0.0 | 0.0 | 0.00 | 0.00 | 0.00 | 38 | 1008.8 |
| 20260905181019 | 23 | 67 | 0.0 | 0.0 | 0.00 | 0.00 | 0.00 | 37 | 1008.8 |
| 20260905180519 | 23 | 64 | 0.0 | 0.0 | 0.00 | 0.00 | 0.00 | 38 | 1008.8 |
| 20260905180020 | 23 | 60 | 4.8 | 6.4 | 0.00 | 0.00 | 0.00 | 37 | 1008.5 |
| 20260905175519 | 24 | 98 | 0.0 | 0.0 | 0.00 | 0.00 | 0.00 | 37 | 1008.5 |
| 20260905175019 | 24 | 90 | 0.0 | 0.0 | 0.00 | 0.00 | 0.00 | 37 | 1008.5 |
| 20260905174519 | 24 | 24 | 9.7 | 9.7 | 0.00 | 0.00 | 0.00 | 39 | 1008.1 |
| 20260905174019 | 25 | 78 | 0.0 | 0.0 | 0.00 | 0.00 | 0.00 | 41 | 1008.5 |
| 20260905173519 | 25 | 73 | 0.0 | 0.0 | 0.00 | 0.00 | 0.00 | 40 | 1008.1 |
| 20260905173019 | 25 | 62 | 0.0 | 0.0 | 0.00 | 0.00 | 0.00 | 40 | 1008.1 |
| 20260905172519 | 25 | 58 | 0.0 | 0.0 | 0.00 | 0.00 | 0.00 | 40 | 1008.1 |
| 20260905172019 | 25 | 12 | 3.2 | 3.2 | 0.00 | 0.00 | 0.00 | 39 | 1008.1 |
| 20260905171519 | 26 | 67 | 3.2 | 3.2 | 0.00 | 0.00 | 0.00 | 39 | 1007.8 |
| 20260905171019 | 26 | 342 | 3.2 | 3.2 | 0.00 | 0.00 | 0.00 | 39 | 1007.8 |
| 20260905170520 | 26 | 72 | 4.8 | 4.8 | 0.00 | 0.00 | 0.00 | 37 | 1007.8 |
| 20260905170019 | 27 | 78 | 1.6 | 1.6 | 0.00 | 0.00 | 0.00 | 36 | 1007.5 |
| 20260905165519 | 27 | 66 | 3.2 | 3.2 | 0.00 | 0.00 | 0.00 | 36 | 1007.8 |
| 20260905165019 | 27 | 73 | 3.2 | 3.2 | 0.00 | 0.00 | 0.00 | 37 | 1007.1 |
| 20260905164520 | 27 | 330 | 1.6 | 1.6 | 0.00 | 0.00 | 0.00 | 37 | 1007.5 |
| 20260905164019 | 27 | 240 | 3.2 | 3.2 | 0.00 | 0.00 | 0.00 | 36 | 1006.8 |
| 20260905163519 | 27 | 67 | 4.8 | 4.8 | 0.00 | 0.00 | 0.00 | 36 | 1007.5 |
| 20260905163019 | 27 | 68 | 3.2 | 3.2 | 0.00 | 0.00 | 0.00 | 35 | 1007.1 |
| 20260905162519 | 27 | 66 | 3.2 | 3.2 | 0.00 | 0.00 | 0.00 | 35 | 1007.1 |
| 20260905162019 | 28 | 321 | 3.2 | 3.2 | 0.00 | 0.00 | 0.00 | 35 | 1007.1 |
| 20260905161519 | 28 | 54 | 3.2 | 3.2 | 0.00 | 0.00 | 0.00 | 34 | 1007.1 |
| 20260905161019 | 28 | 58 | 3.2 | 3.2 | 0.00 | 0.00 | 0.00 | 34 | 1007.5 |
| 20260905160521 | 28 | 80 | 4.8 | 4.8 | 0.00 | 0.00 | 0.00 | 34 | 1007.5 |
| 20260905160019 | 28 | 46 | 4.8 | 4.8 | 0.00 | 0.00 | 0.00 | 34 | 1007.1 |
| 20260905155519 | 28 | 77 | 4.8 | 4.8 | 0.00 | 0.00 | 0.00 | 34 | 1007.1 |
| 20260905155019 | 28 | 42 | 3.2 | 3.2 | 0.00 | 0.00 | 0.00 | 33 | 1007.1 |
| 20260905154520 | 28 | 70 | 3.2 | 3.2 | 0.00 | 0.00 | 0.00 | 33 | 1007.1 |
| 20260905154019 | 29 | 84 | 0.0 | 0.0 | 0.00 | 0.00 | 0.00 | 33 | 1006.8 |
| 20260905153519 | 29 | 67 | 4.8 | 4.8 | 0.00 | 0.00 | 0.00 | 31 | 1006.8 |
| 20260905153021 | 29 | 55 | 4.8 | 4.8 | 0.00 | 0.00 | 0.00 | 32 | 1006.8 |
| 20260905152519 | 29 | 318 | 3.2 | 3.2 | 0.00 | 0.00 | 0.00 | 31 | 1006.8 |
| 20260905152019 | 30 | 136 | 11.3 | 11.3 | 0.00 | 0.00 | 0.00 | 31 | 1006.4 |
| 20260905151521 | 30 | 72 | 3.2 | 3.2 | 0.00 | 0.00 | 0.00 | 30 | 1006.8 |
| 20260905151019 | 30 | 81 | 0.0 | 0.0 | 0.00 | 0.00 | 0.00 | 30 | 1006.4 |
| 20260905150519 | 30 | 66 | 3.2 | 3.2 | 0.00 | 0.00 | 0.00 | 31 | 1006.8 |
| 20260905150019 | 30 | 61 | 3.2 | 3.2 | 0.00 | 0.00 | 0.00 | 31 | 1006.4 |
| 20260905145519 | 29 | 36 | 3.2 | 3.2 | 0.00 | 0.00 | 0.00 | 32 | 1006.8 |
| 20260905145019 | 29 | 72 | 0.0 | 0.0 | 0.00 | 0.00 | 0.00 | 33 | 1006.4 |
| 20260905144521 | 30 | 89 | 3.2 | 3.2 | 0.00 | 0.00 | 0.00 | 32 | 1006.1 |
| 20260905144019 | 30 | 82 | 8.0 | 8.0 | 0.00 | 0.00 | 0.00 | 31 | 1006.1 |
| 20260905143519 | 30 | 60 | 6.4 | 6.4 | 0.00 | 0.00 | 0.00 | 31 | 1006.1 |
| 20260905143020 | 30 | 71 | 4.8 | 4.8 | 0.00 | 0.00 | 0.00 | 30 | 1006.1 |
| 20260905142520 | 31 | 66 | 4.8 | 4.8 | 0.00 | 0.00 | 0.00 | 31 | 1006.1 |
| 20260905142019 | 30 | 83 | 4.8 | 4.8 | 0.00 | 0.00 | 0.00 | 32 | 1005.8 |
| 20260905141519 | 30 | 67 | 3.2 | 3.2 | 0.00 | 0.00 | 0.00 | 33 | 1005.8 |
| 20260905141019 | 31 | 360 | 6.4 | 6.4 | 0.00 | 0.00 | 0.00 | 33 | 1005.8 |
| 20260905140521 | 31 | 62 | 4.8 | 4.8 | 0.00 | 0.00 | 0.00 | 35 | 1005.8 |
| 20260905140019 | 31 | 108 | 3.2 | 3.2 | 0.00 | 0.00 | 0.00 | 34 | 1005.8 |
| 20260905135519 | 30 | 67 | 4.8 | 4.8 | 0.00 | 0.00 | 0.00 | 36 | 1006.1 |
| 20260905135019 | 30 | 79 | 6.4 | 6.4 | 0.00 | 0.00 | 0.00 | 36 | 1006.1 |
| 20260905134520 | 30 | 74 | 4.8 | 4.8 | 0.00 | 0.00 | 0.00 | 36 | 1005.8 |
| 20260905134019 | 30 | 41 | 6.4 | 8.0 | 0.00 | 0.00 | 0.00 | 37 | 1005.8 |
| 20260905133519 | 30 | 68 | 3.2 | 3.2 | 0.00 | 0.00 | 0.00 | 37 | 1005.8 |
| 20260905133019 | 30 | 72 | 6.4 | 6.4 | 0.00 | 0.00 | 0.00 | 38 | 1005.4 |
| 20260905132519 | 31 | 68 | 4.8 | 6.4 | 0.00 | 0.00 | 0.00 | 37 | 1005.8 |
| 20260905132019 | 31 | 67 | 4.8 | 6.4 | 0.00 | 0.00 | 0.00 | 38 | 1005.4 |
| 20260905131519 | 31 | 62 | 6.4 | 6.4 | 0.00 | 0.00 | 0.00 | 38 | 1005.4 |
| 20260905131019 | 31 | 70 | 8.0 | 8.0 | 0.00 | 0.00 | 0.00 | 38 | 1005.1 |
| 20260905130519 | 31 | 114 | 4.8 | 4.8 | 0.00 | 0.00 | 0.00 | 38 | 1005.1 |
| 20260905130019 | 31 | 360 | 6.4 | 6.4 | 0.00 | 0.00 | 0.00 | 37 | 1005.1 |
| 20260905125522 | 31 | 72 | 9.7 | 9.7 | 0.00 | 0.00 | 0.00 | 37 | 1005.1 |
| 20260905125019 | 31 | 78 | 6.4 | 6.4 | 0.00 | 0.00 | 0.00 | 37 | 1005.1 |
| 20260905124520 | 31 | 144 | 9.7 | 9.7 | 0.00 | 0.00 | 0.00 | 37 | 1005.1 |
| 20260905124019 | 31 | 49 | 8.0 | 9.7 | 0.00 | 0.00 | 0.00 | 37 | 1005.1 |
| 20260905123519 | 32 | 132 | 6.4 | 6.4 | 0.00 | 0.00 | 0.00 | 36 | 1004.7 |
| 20260905123019 | 33 | 60 | 3.2 | 3.2 | 0.00 | 0.00 | 0.00 | 32 | 1004.4 |
| 20260905122519 | 33 | 59 | 4.8 | 4.8 | 0.00 | 0.00 | 0.00 | 31 | 1004.4 |
| 20260905122020 | 33 | 70 | 3.2 | 3.2 | 0.00 | 0.00 | 0.00 | 31 | 1004.4 |
| 20260905121519 | 33 | 78 | 0.0 | 0.0 | 0.00 | 0.00 | 0.00 | 30 | 1004.7 |
| 20260905121019 | 34 | 324 | 3.2 | 3.2 | 0.00 | 0.00 | 0.00 | 29 | 1004.7 |
| 20260905120520 | 33 | 260 | 0.0 | 0.0 | 0.00 | 0.00 | 0.00 | 31 | 1004.7 |
| 20260905120020 | 34 | 64 | 3.2 | 3.2 | 0.00 | 0.00 | 0.00 | 31 | 1005.1 |
| 20260905115520 | 35 | 312 | 4.8 | 6.4 | 0.00 | 0.00 | 0.00 | 30 | 1005.1 |
| 20260905115019 | 34 | 282 | 4.8 | 6.4 | 0.00 | 0.00 | 0.00 | 31 | 1005.1 |
| 20260905114519 | 34 | 339 | 3.2 | 3.2 | 0.00 | 0.00 | 0.00 | 31 | 1005.1 |
| 20260905114019 | 34 | 287 | 6.4 | 6.4 | 0.00 | 0.00 | 0.00 | 31 | 1004.7 |
| 20260905113519 | 34 | 275 | 6.4 | 6.4 | 0.00 | 0.00 | 0.00 | 31 | 1005.1 |
| 20260905113022 | 34 | 335 | 4.8 | 4.8 | 0.00 | 0.00 | 0.00 | 31 | 1005.1 |
| 20260905112519 | 34 | 18 | 4.8 | 6.4 | 0.00 | 0.00 | 0.00 | 31 | 1005.1 |
| 20260905112019 | 34 | 306 | 3.2 | 3.2 | 0.00 | 0.00 | 0.00 | 31 | 1005.1 |
| 20260905111519 | 34 | 18 | 6.4 | 6.4 | 0.00 | 0.00 | 0.00 | 30 | 1005.1 |
| 20260905111019 | 34 | 279 | 3.2 | 3.2 | 0.00 | 0.00 | 0.00 | 32 | 1005.4 |
| 20260905110519 | 34 | 306 | 3.2 | 3.2 | 0.00 | 0.00 | 0.00 | 31 | 1005.1 |
| 20260905110019 | 34 | 313 | 3.2 | 3.2 | 0.00 | 0.00 | 0.00 | 31 | 1005.1 |
| 20260905105521 | 34 | 324 | 4.8 | 4.8 | 0.00 | 0.00 | 0.00 | 31 | 1005.1 |
| 20260905105019 | 33 | 324 | 3.2 | 3.2 | 0.00 | 0.00 | 0.00 | 31 | 1005.1 |
| 20260905104519 | 33 | 294 | 6.4 | 6.4 | 0.00 | 0.00 | 0.00 | 31 | 1005.1 |
| 20260905104020 | 34 | 360 | 6.4 | 6.4 | 0.00 | 0.00 | 0.00 | 31 | 1005.1 |
| 20260905103520 | 33 | 281 | 6.4 | 6.4 | 0.00 | 0.00 | 0.00 | 31 | 1005.1 |
| 20260905103020 | 33 | 272 | 6.4 | 6.4 | 0.00 | 0.00 | 0.00 | 32 | 1005.4 |
| 20260905102520 | 33 | 265 | 8.0 | 8.0 | 0.00 | 0.00 | 0.00 | 32 | 1005.1 |
| 20260905102019 | 34 | 318 | 6.4 | 8.0 | 0.00 | 0.00 | 0.00 | 32 | 1005.4 |
| 20260905101519 | 33 | 265 | 3.2 | 3.2 | 0.00 | 0.00 | 0.00 | 32 | 1005.4 |
| 20260905101023 | 33 | 287 | 3.2 | 3.2 | 0.00 | 0.00 | 0.00 | 33 | 1005.4 |
| 20260905100520 | 33 | 268 | 4.8 | 4.8 | 0.00 | 0.00 | 0.00 | 33 | 1005.4 |
| 20260905100020 | 33 | 26 | 3.2 | 3.2 | 0.00 | 0.00 | 0.00 | 31 | 1005.4 |
| 20260905095519 | 32 | 318 | 4.8 | 6.4 | 0.00 | 0.00 | 0.00 | 33 | 1005.4 |
| 20260905095019 | 32 | 311 | 3.2 | 3.2 | 0.00 | 0.00 | 0.00 | 32 | 1005.8 |
| 20260905094519 | 32 | 67 | 4.8 | 4.8 | 0.00 | 0.00 | 0.00 | 32 | 1005.4 |
| 20260905094019 | 32 | 337 | 0.0 | 0.0 | 0.00 | 0.00 | 0.00 | 33 | 1005.4 |
| 20260905093519 | 32 | 1 | 3.2 | 3.2 | 0.00 | 0.00 | 0.00 | 34 | 1005.8 |
| 20260905093019 | 32 | 282 | 3.2 | 3.2 | 0.00 | 0.00 | 0.00 | 34 | 1005.4 |
| 20260905092519 | 32 | 2 | 3.2 | 3.2 | 0.00 | 0.00 | 0.00 | 35 | 1005.4 |
| 20260905092019 | 32 | 3 | 3.2 | 3.2 | 0.00 | 0.00 | 0.00 | 34 | 1005.4 |
| 20260905091519 | 31 | 276 | 3.2 | 3.2 | 0.00 | 0.00 | 0.00 | 35 | 1005.8 |
| 20260905091020 | 32 | 14 | 4.8 | 6.4 | 0.00 | 0.00 | 0.00 | 35 | 1005.4 |
| 20260905090519 | 31 | 48 | 6.4 | 6.4 | 0.00 | 0.00 | 0.00 | 35 | 1005.4 |
| 20260905090019 | 31 | 294 | 3.2 | 3.2 | 0.00 | 0.00 | 0.00 | 36 | 1005.4 |
| 20260905085519 | 30 | 309 | 4.8 | 6.4 | 0.00 | 0.00 | 0.00 | 37 | 1005.4 |
| 20260905085022 | 30 | 276 | 4.8 | 4.8 | 0.00 | 0.00 | 0.00 | 37 | 1005.8 |
| 20260905084519 | 31 | 24 | 0.0 | 0.0 | 0.00 | 0.00 | 0.00 | 36 | 1005.8 |
| 20260905084020 | 30 | 6 | 3.2 | 3.2 | 0.00 | 0.00 | 0.00 | 37 | 1005.8 |
| 20260905083520 | 29 | 283 | 3.2 | 3.2 | 0.00 | 0.00 | 0.00 | 37 | 1005.8 |
| 20260905083019 | 29 | 284 | 3.2 | 3.2 | 0.00 | 0.00 | 0.00 | 37 | 1005.8 |
| 20260905082519 | 30 | 282 | 3.2 | 3.2 | 0.00 | 0.00 | 0.00 | 37 | 1005.8 |
| 20260905082019 | 30 | 288 | 3.2 | 3.2 | 0.00 | 0.00 | 0.00 | 38 | 1005.8 |
| 20260905081519 | 29 | 288 | 3.2 | 3.2 | 0.00 | 0.00 | 0.00 | 39 | 1005.8 |
| 20260905081019 | 29 | 300 | 3.2 | 3.2 | 0.00 | 0.00 | 0.00 | 39 | 1005.8 |
| 20260905080519 | 28 | 278 | 3.2 | 3.2 | 0.00 | 0.00 | 0.00 | 39 | 1005.8 |
| 20260905080019 | 28 | 264 | 1.6 | 1.6 | 0.00 | 0.00 | 0.00 | 40 | 1005.8 |
| 20260905075519 | 28 | 276 | 0.0 | 0.0 | 0.00 | 0.00 | 0.00 | 40 | 1005.4 |
| 20260905075019 | 28 | 288 | 4.8 | 4.8 | 0.00 | 0.00 | 0.00 | 41 | 1005.8 |
| 20260905074519 | 27 | 288 | 3.2 | 3.2 | 0.00 | 0.00 | 0.00 | 42 | 1005.4 |
| 20260905074020 | 27 | 294 | 4.8 | 4.8 | 0.00 | 0.00 | 0.00 | 42 | 1005.8 |
| 20260905073519 | 27 | 12 | 8.0 | 8.0 | 0.00 | 0.00 | 0.00 | 42 | 1005.4 |
| 20260905073019 | 26 | 298 | 0.0 | 0.0 | 0.00 | 0.00 | 0.00 | 43 | 1005.8 |
| 20260905072521 | 26 | 312 | 1.6 | 1.6 | 0.00 | 0.00 | 0.00 | 44 | 1005.8 |
| 20260905072019 | 26 | 288 | 3.2 | 3.2 | 0.00 | 0.00 | 0.00 | 45 | 1005.8 |
| 20260905071522 | 25 | 271 | 3.2 | 3.2 | 0.00 | 0.00 | 0.00 | 45 | 1005.4 |
| 20260905071020 | 25 | 276 | 4.8 | 4.8 | 0.00 | 0.00 | 0.00 | 45 | 1005.4 |
| 20260905070519 | 25 | 283 | 4.8 | 4.8 | 0.00 | 0.00 | 0.00 | 47 | 1005.8 |
| 20260905070019 | 25 | 278 | 0.0 | 0.0 | 0.00 | 0.00 | 0.00 | 49 | 1005.4 |
| 20260905065520 | 25 | 298 | 1.6 | 1.6 | 0.00 | 0.00 | 0.00 | 50 | 1005.8 |
| 20260905065021 | 24 | 288 | 0.0 | 0.0 | 0.00 | 0.00 | 0.00 | 51 | 1005.8 |
| 20260905064519 | 24 | 228 | 0.0 | 0.0 | 0.00 | 0.00 | 0.00 | 51 | 1005.4 |
| 20260905064019 | 23 | 284 | 3.2 | 3.2 | 0.00 | 0.00 | 0.00 | 51 | 1005.4 |
| 20260905063519 | 23 | 276 | 3.2 | 3.2 | 0.00 | 0.00 | 0.00 | 52 | 1005.4 |
| 20260905063019 | 23 | 282 | 3.2 | 3.2 | 0.00 | 0.00 | 0.00 | 54 | 1005.4 |
| 20260905062519 | 22 | 271 | 3.2 | 3.2 | 0.00 | 0.00 | 0.00 | 54 | 1005.8 |
| 20260905062019 | 22 | 288 | 3.2 | 3.2 | 0.00 | 0.00 | 0.00 | 56 | 1005.4 |
| 20260905061519 | 22 | 288 | 1.6 | 1.6 | 0.00 | 0.00 | 0.00 | 56 | 1005.4 |
| 20260905061020 | 21 | 264 | 0.0 | 0.0 | 0.00 | 0.00 | 0.00 | 58 | 1005.4 |
| 20260905060519 | 21 | 258 | 0.0 | 0.0 | 0.00 | 0.00 | 0.00 | 59 | 1005.4 |
| 20260905060020 | 21 | 252 | 6.4 | 6.4 | 0.00 | 0.00 | 0.00 | 59 | 1005.4 |
| 20260905055519 | 20 | 264 | 4.8 | 4.8 | 0.00 | 0.00 | 0.00 | 61 | 1005.4 |
| 20260905055019 | 20 | 252 | 3.2 | 3.2 | 0.00 | 0.00 | 0.00 | 61 | 1005.4 |
| 20260905054520 | 20 | 276 | 3.2 | 3.2 | 0.00 | 0.00 | 0.00 | 63 | 1005.4 |
| 20260905054019 | 19 | 283 | 3.2 | 3.2 | 0.00 | 0.00 | 0.00 | 64 | 1005.4 |
| 20260905053519 | 19 | 246 | 0.0 | 0.0 | 0.00 | 0.00 | 0.00 | 65 | 1005.8 |
| 20260905053019 | 18 | 264 | 0.0 | 0.0 | 0.00 | 0.00 | 0.00 | 66 | 1005.4 |
| 20260905052519 | 18 | 264 | 1.6 | 1.6 | 0.00 | 0.00 | 0.00 | 66 | 1005.4 |
| 20260905052020 | 18 | 258 | 0.0 | 0.0 | 0.00 | 0.00 | 0.00 | 68 | 1005.4 |
| 20260905051519 | 18 | 258 | 3.2 | 3.2 | 0.00 | 0.00 | 0.00 | 69 | 1005.4 |
| 20260905051019 | 17 | 258 | 3.2 | 3.2 | 0.00 | 0.00 | 0.00 | 70 | 1005.4 |
| 20260905050519 | 17 | 270 | 1.6 | 1.6 | 0.00 | 0.00 | 0.00 | 71 | 1005.1 |
| 20260905050018 | 17 | 270 | 0.0 | 0.0 | 0.00 | 0.00 | 0.00 | 71 | 1005.4 |
| 20260905045520 | 17 | 270 | 3.2 | 3.2 | 0.00 | 0.00 | 0.00 | 72 | 1005.1 |
| 20260905045019 | 16 | 270 | 0.0 | 0.0 | 0.00 | 0.00 | 0.00 | 72 | 1005.1 |
| 20260905044519 | 16 | 270 | 0.0 | 0.0 | 0.00 | 0.00 | 0.00 | 74 | 1005.1 |
| 20260905044019 | 16 | 270 | 0.0 | 0.0 | 0.00 | 0.00 | 0.00 | 74 | 1005.4 |
| 20260905043519 | 16 | 270 | 0.0 | 0.0 | 0.00 | 0.00 | 0.00 | 75 | 1005.1 |
| 20260905043020 | 16 | 270 | 0.0 | 0.0 | 0.00 | 0.00 | 0.00 | 75 | 1005.1 |
| 20260905042520 | 16 | 270 | 0.0 | 0.0 | 0.00 | 0.00 | 0.00 | 75 | 1005.1 |
| 20260905042019 | 16 | 270 | 0.0 | 0.0 | 0.00 | 0.00 | 0.00 | 75 | 1005.4 |
| 20260905041519 | 16 | 270 | 0.0 | 0.0 | 0.00 | 0.00 | 0.00 | 76 | 1005.4 |
| 20260905041019 | 15 | 270 | 0.0 | 0.0 | 0.00 | 0.00 | 0.00 | 76 | 1005.4 |
| 20260905040519 | 16 | 270 | 0.0 | 0.0 | 0.00 | 0.00 | 0.00 | 76 | 1005.1 |
| 20260905040019 | 16 | 270 | 0.0 | 0.0 | 0.00 | 0.00 | 0.00 | 76 | 1005.1 |
| 20260905035519 | 16 | 270 | 0.0 | 0.0 | 0.00 | 0.00 | 0.00 | 76 | 1005.1 |
| 20260905035019 | 16 | 270 | 0.0 | 0.0 | 0.00 | 0.00 | 0.00 | 76 | 1005.1 |
| 20260905034519 | 16 | 270 | 0.0 | 0.0 | 0.00 | 0.00 | 0.00 | 77 | 1005.4 |
| 20260905034019 | 16 | 270 | 0.0 | 0.0 | 0.00 | 0.00 | 0.00 | 77 | 1005.4 |
| 20260905033519 | 16 | 270 | 0.0 | 0.0 | 0.00 | 0.00 | 0.00 | 76 | 1005.1 |
| 20260905033019 | 16 | 270 | 3.2 | 3.2 | 0.00 | 0.00 | 0.00 | 76 | 1005.4 |
| 20260905032520 | 16 | 270 | 0.0 | 0.0 | 0.00 | 0.00 | 0.00 | 76 | 1005.1 |
| 20260905032019 | 16 | 270 | 0.0 | 0.0 | 0.00 | 0.00 | 0.00 | 77 | 1005.1 |
| 20260905031519 | 16 | 270 | 0.0 | 0.0 | 0.00 | 0.00 | 0.00 | 77 | 1005.1 |
| 20260905031019 | 16 | 270 | 0.0 | 0.0 | 0.00 | 0.00 | 0.00 | 77 | 1005.1 |
| 20260905030519 | 16 | 270 | 0.0 | 0.0 | 0.00 | 0.00 | 0.00 | 77 | 1005.4 |
| 20260905030019 | 16 | 270 | 0.0 | 0.0 | 0.00 | 0.00 | 0.00 | 76 | 1005.1 |
| 20260905025519 | 17 | 270 | 0.0 | 0.0 | 0.00 | 0.00 | 0.00 | 75 | 1005.1 |
| 20260905025019 | 17 | 270 | 0.0 | 0.0 | 0.00 | 0.00 | 0.00 | 75 | 1005.1 |
| 20260905024520 | 17 | 270 | 0.0 | 0.0 | 0.00 | 0.00 | 0.00 | 73 | 1005.1 |
| 20260905024019 | 17 | 270 | 0.0 | 0.0 | 0.00 | 0.00 | 0.00 | 72 | 1005.1 |
| 20260905023520 | 18 | 270 | 0.0 | 0.0 | 0.00 | 0.00 | 0.00 | 71 | 1005.1 |